Wind_Speed
32 31 30 29 25 28 30 31 31 32 30 30 30 30 27 26 26 27 27 29 27 26
37 32 33 31 25 25 29 28 30 30 31 33 33 30 25 28 28 26 26 27 27 26
42 39 33 32 32 30 24 24 27 29 28 28 31 32 30 28 27 23 25 24 22 21
36 38 40 35 31 31 32 27 24 22 21 24 28 26 29 29 23 22 22 22 18 19
33 33 36 35 37 37 32 30 31 30 28 24 20 21 26 29 25 21 21 18 16 18
32 31 32 33 33 32 32 34 30 28 28 28 26 26 27 25 23 21 18 17 17 17
33 32 32 31 29 28 29 31 32 29 32 25 23 24 25 25 23 21 19 17 17 17
34 32 32 33 31 29 27 27 28 33 31 29 29 26 25 24 24 22 19 17 17 15
30 32 34 34 34 33 30 29 28 28 29 30 28 27 24 23 21 20 20 18 17 15
25 30 34 36 35 35 34 31 32 32 30 31 29 25 23 22 19 19 19 18 16 15
13 21 33 37 38 38 37 36 35 34 33 31 29 25 22 20 19 17 17 14 14 14
19 20 21 30 38 39 36 35 35 35 32 29 26 22 21 21 18 17 17 15 13 14
19 21 21 25 32 33 37 35 32 32 30 25 25 22 21 22 20 19 20 16 14 15
22 23 24 26 27 29 30 25 29 31 28 26 25 22 19 19 20 19 19 17 16 17
Wind_Direction
213 216 220 221 224 222 226 229 234 231 230 232 235 236 236 240 244 245 246 249 252 250
212 215 219 222 223 230 232 238 239 237 237 238 238 238 239 241 246 245 245 250 255 257
215 216 219 223 228 231 235 236 239 240 245 246 248 244 238 240 245 250 250 255 258 255
217 220 222 223 228 232 235 236 235 236 242 246 245 245 234 237 245 249 255 257 255 259
222 225 227 228 232 234 236 238 243 247 250 245 237 233 230 236 243 252 256 261 252 256
217 224 231 231 233 235 238 239 244 243 243 241 241 232 232 237 245 249 253 257 251 256
214 225 231 234 234 234 235 234 233 237 239 243 242 238 232 233 239 245 244 246 245 251
219 225 229 234 237 238 237 236 237 236 239 243 242 240 237 241 244 242 240 240 247 243
222 227 228 234 237 238 238 239 239 236 235 236 236 237 242 245 244 239 240 245 244 236
238 233 232 236 234 236 237 235 236 237 237 236 234 236 237 234 237 238 238 240 245 238
322 254 242 236 235 236 235 233 233 235 235 235 232 232 236 227 231 237 233 233 239 237
343 338 279 245 236 234 229 227 228 233 230 228 227 229 229 225 223 236 234 235 237 242
328 327 324 287 256 239 231 227 223 223 224 224 225 226 222 220 220 227 224 226 238 242
326 319 315 316 278 243 224 211 210 217 217 215 218 218 215 220 220 221 216 227 243 246
Height
809 812 814 817 820 822 823 825 828 830 832 833 835 837 840 840 840 841 841 841 842 843
805 807 809 812 815 817 819 821 822 825 826 828 829 832 835 836 836 836 836 837 838 838
798 801 804 808 810 813 815 817 819 821 822 823 823 826 828 829 830 831 831 832 833 833
794 797 799 802 805 808 811 813 815 817 818 818 819 820 823 824 826 827 827 828 828 829
791 793 795 796 798 802 804 807 809 812 812 814 814 816 818 819 822 823 823 825 826 826
784 787 790 791 792 794 797 800 803 806 806 808 809 811 814 816 817 818 819 821 822 823
776 779 783 786 787 788 790 793 796 798 801 802 804 807 809 811 812 814 815 817 818 819
769 772 777 780 781 783 785 786 788 792 795 797 799 802 804 805 807 808 810 811 813 815
766 770 771 773 775 777 779 781 784 786 788 791 794 797 800 801 803 805 807 808 809 811
766 767 767 768 770 771 773 775 777 780 783 785 788 792 795 797 799 801 802 805 806 808
762 761 762 763 763 764 766 768 770 773 776 780 784 788 791 793 795 796 798 800 802 804
758 759 758 757 755 756 759 761 763 767 772 777 781 784 787 790 793 795 797 800 801 802
760 757 755 753 750 750 751 754 759 762 767 773 777 781 783 784 787 790 792 794 797 798
755 751 748 746 744 744 746 750 753 756 760 763 768 774 779 783 785 786 787 790 791 791